Location: Newark
(47.5989°N, 4.6950°E)
Time: 01:53:44
(UTC+00:00)

Envisat - Pass Details

Date: 24 November 2019
Orbit: 764 x 766 km, 98.1° (Epoch: 09 December)

Event Time Altitude Azimuth Distance (km) Brightness Sun altitude
Rises 06:12:24 0° 18° (NNE) 3,243 6.2 -7.8°
Reaches altitude 10° 06:14:47 10° 23° (NNE) 2,312 5.5 -7.5°
Maximum altitude 06:19:44 50° 99° (E) 972 4.1 -6.7°
Drops below altitude 10° 06:24:38 10° 175° (S) 2,295 5.9 -5.9°
Sets 06:27:00 0° 180° (S) 3,216 6.6 -5.6°
